Погода в Дашогузе

Погода в Дашогузе : погода сейчас, прогноз погоды и архив. Всё, что Вы хотите узнать о погоде в Дашогузе!

Поиск расширенной информации на нашем сайте:

Другие новости

Новости СМИ2

Главная страница сайта

Новости сайта

03.07.2017

Напоминаем, что на нашем специализированном сайте Метеоцентр.Азия вы можете получить высокодетализированные автоматические прогнозы погоды по пунктам России, СНГ и мира в авиационном формате (включающие направление и скорость ветра, видимость, явления погоды, количество и форму облачности, нижнюю и верхнюю границу облачности).


Погода в Дашогузе - сегодня

Время (UTC), дата Ветер
(°,м/с) 
Видим.   Явления Облачность Т
(°С)
Тd
(°С)
f(%) Тe
(°С)
Pmin
(гПа)
dP
(гПа)
Po
(мм)
O2
(г/м3)
Тmin Tmax R s Состояние
почвы
03 20.02.18 070 (В) 10 км    9/9 1000 м 
[Sc]
-4.9 -7.3 83 -6  1032  0.7  766  315  -5.7         
06 20.02.18 260 (З) 10 км    9/0 средняя 
[Ac trans]
-0.2 -4.2 74 -3  1027.2  762  308  -7.3         
09 20.02.18 280 (З) 10 км    9/9 500 м 
[Sc]
+4.4 +1.1 79 +1  1016.7  -0.2  755  299           
12 20.02.18 260 (З) 10 км    9/9 660 м 
[Sc]
+4.9 +0.5 73 +2  1016.9  0.2  755  299           
15 20.02.18 270 (З) 10 км    9/9 900 м 
[Sc]
+4.1 -0.5 72 +3  1018.1  1.1  756  300    +5.3       
18 20.02.18 100 (В) 10 км    8/0 средняя 
[Ac trans]
-5.2 -13.2 53 -8  1036.9  0.3  769  317    +0.4       
21 20.02.18 250 (З) 10 км  {дождь}  10/10 1110 м 
[Sc]
+3.6 +1.5 86 +1  1017.5  -0.3  755  300           
00 21.02.18 290 (З) 4000 м  дымка{дождь}  10/10 150 м 
[St]
+1.2 +0.7 96 -2  1020  2.4  757  304    -0.2       
03 21.02.18 290 (З) 10 км    10/10 100 м 
[St]
+0.8 -0.3 92 -2  1021.8  1.8  758  305      0.0     
06 21.02.18 290 (З) 10 км    10/10 240 м 
[St]
+1 -0.1 92 -1  1023.8  760  305  +0.8    0.0     
09 21.02.18 нст () 10 км    10/10 360 м 
[St]
+2.5 -1.1 77 +3  1023.9  0.1  760  304           
12 21.02.18 310 (СЗ) 10 км    5/3 1500 м средняя 
[Frnb|Ac lent]
+5 -2.2 60 +5  1023.6  -0.2  760  301           
15 21.02.18 080 (В) 10 км    10/0 средняя, верхняя 
[Ac lent|Ci sp]
+2.5 -2.4 70 +1  1024.3  0.6  760  304    +5.4       
18 21.02.18 090 (В) 10 км    8/0 средняя 
[Ac trans]
-0.6 -3.4 81 -3  1024.9  0.5  761  308    +5.4       
21 21.02.18 110 (В) 4000 м  дымка  9/0 средняя 
[Ac trans]
-1.7 -3.1 90 -3  1024.8  -0.2  761  309           
00 22.02.18 090 (В) 4000 м  дымка  9/0 средняя 
[Ac trans]
-2 -3.2 91 -5  1024.2  -0.6  760  309           
03 22.02.18 080 (В) 10 км    6/0 средняя 
[Ac trans]
-2.4 -3.3 94 -5  1024  -0.2  760  309           
06 22.02.18 080 (В) 4000 м  дымка  10/10 120 м 
[St]
+0.2 -0.6 94 -3  1024  0.2  760  306  -3         
09 22.02.18 100 (В) 10 км    10/0 верхняя 
[Ci]
+4 +0.9 80 +2  1022.4  -1.6  759  301           
12 22.02.18 090 (В) 10 км    9/0 средняя 
[Ac trans]
+8 -2.5 47 +6  1019.8  -2.4  757  297           
15 22.02.18 120 (ЮВ) 10 км    9/0 средняя 
[Ac trans]
+4.4 -3 59 +3  1020.1  0.2  757  301    +8.4       
18 22.02.18 080 (В) 10 км    10/0 верхняя 
[Ci sp]
+1.9 -2.1 75 1019.8  -0.4  757  303    +8.4       
21 22.02.18 090 (В) 10 км    9/0 средняя 
[Ac trans]
+1.8 -1.3 80 -1  1018.3  -1.5  756  303           
00 23.02.18 050 (СВ) 10 км    9/0 средняя 
[Ac trans]
+1.4 -1.1 83 +1  1017.8  -0.5  755  303    -0.2       
03 23.02.18 360 (С) 10 км    10/0 средняя, верхняя 
[Ac lent|Ci sp]
+0 -1.8 88 -2  1018.1  0.2  756  305           
Время (UTC), дата Ветер
(°,м/с) 
Видим.   Явления Облачность Т
(°С)
Тd
(°С)
f(%) Тe
(°С)
Pmin
(гПа)
dP
(гПа)
Po
(мм)
O2
(г/м3)
Тmin Tmax R s Состояние
почвы

Для получения пояснительной информации подведите курсор к названию столбца.

ПОГОДА в Дашогузе - архив

Всё, что Вы хотите узнать о погоде в Дашогузе - удобно и подробно!

Выберите нужную дату (начиная с 1 января 2015* года) и нажмите кнопку "Найти".
Будут отображены архивные сводки погоды по пункту Дашогуз, начиная с указанной даты.


Отображать данные в формате CSV (для использования в таблицах Excel)


Внимание! Наш архив погоды предназначен исключительно для личного некоммерческого использования в познавательных целях. Если Вам необходимы официальные справки о состоянии погоды (для производственных, юридических, коммерческих и т.п. целей), обращайтесь в органы Росгидромета.

*Примечание: данная дата относится к архиву по метеостанциям СССР (Россия, СНГ, Балтия).
Архив по метеостанциям Зарубежной Европы и Азии (кроме Китая) хранится 10 дней, по другим регионам земного шара (Китай, Африка, Америка, Австралия, Океания) - 1 день.

Дашогуз - район местоположения метеостанции


Название, широта, долгота, высота метеостанции:
Дашогуз (Ташауз) 41.8°ш. 59.8°д. 82 м над ур. моря [Туркменистан]

Дополнительная информация

В oтличие oт бoльшинства пoгoдных сайтoв мы публикуем пoдрoбную метеoинфoрмацию в детальнoм прoфессиoнальнoм фoрмате.

Характеристики температуры и влажнoсти вoздуха измеряются на высoте 2 м в тени вдали oт зданий и деревьев.
Скoрoсть ветра измеряется на высoте 10 м (на урoвне рoста челoвека скoрoсть ветра ниже в 1.5-2 раза). Если метеoстанция нахoдится в гoрoде или в лесу, тo скoрoсть ветра занижена на 2-4 м/с пo сравнению с oткрытым местoм. Скoрoсть ветра над акватoриями крупных рек и oзёр, а также на вершинах хoлмoв на 2-5 м/с выше, чем в oбычных услoвиях.
Атмoсфернoе давление в разных тoчках местнoсти мoжет значительнo oтличаться oт давления на метеoстанции, в зависимoсти oт услoвий рельефа (при пoдъёме на 10 м давление пoнижается примернo на 1 мм рт.ст.).